Tracking 22130 objects as of 21-Jan-2021
HD Live streaming from Space Station
objects crossing your sky now

COSMOS 1867 COOLANT

Track COSMOS 1867 COOLANT now!
10-day predictions


NORAD ID: 43326
Int'l Code: 1987-060AT
Perigee: 780.6 km
Apogee: 805.8 km
Inclination: 65.0 °
Period: 100.6 minutes
Semi major axis: 7164 km
RCS: Unknown
Launch date: July 10, 1987
Source: Commonwealth of Independent States (former USSR) (CIS)
Launch site: TYURATAM MISSILE AND SPACE COMPLEX (TTMTR)

Note: This is SATELLITE DEBRIS
aabbcc
Your satellite tracking list
Your tracking list is empty




NASA's NSSDC Master Catalog

Two Line Element Set (TLE):
1 43326U 87060AT  21021.08073044 -.00000002  00000-0  36714-4 0  9999
2 43326  65.0106 147.7353 0017579 283.6885  76.2242 14.31705143174573
Source of the keplerian elements: AFSPC